Location: Godiavel Galaoual
(15.2485°N, 12.6604°W)
Time: 18:07:08
(UTC+00:00)

IUS-7 SRM-1 - Pass Details

Date: 27 February 2020
Orbit: 292 x 29945 km, 26.5° (Epoch: 02 April)

Event Time Altitude Azimuth Distance (km) Brightness Sun altitude
Rises 19:23:27 0° 287° (WNW) 3,429 8.3 -7.0°
Reaches altitude 10° 19:26:54 10° 277° (W) 1,592 6.7 -7.8°
Maximum altitude 19:29:26 31° 210° (SSW) 573 3.4 -8.4°
Drops below altitude 10° 19:31:14 10° 142° (SE) 1,128 4.1 -8.8°
Enters shadow 19:32:03 - 134° (SE) 1,543 4.7 -9.0°
